Vorticity
nan nan nan nan nan nan nan nan nan nan nan nan nan nan nan nan nan nan nan nan nan nan nan nan nan nan nan nan nan nan nan nan nan nan nan nan nan nan nan nan nan nan nan nan nan nan nan nan nan nan nan nan nan nan nan nan nan nan nan nan nan nan nan nan nan nan nan nan nan
nan 11 11 11 11 11 10 9 8 9 10 10 9 9 9 9 8 8 9 10 10 9 9 7 7 8 8 8 9 9 9 8 7 7 6 7 9 10 10 9 9 10 10 10 11 11 9 10 11 11 10 8 8 8 9 10 9 8 8 11 11 8 5 5 6 6 8 9 nan
nan 10 9 9 10 11 10 9 9 9 10 10 10 10 9 9 9 8 9 9 10 10 9 8 7 7 8 8 9 9 9 9 9 8 7 7 8 10 11 10 9 10 11 11 11 11 10 10 10 10 10 10 10 9 8 9 10 8 6 8 11 10 8 6 6 8 9 8 nan
nan 10 9 8 9 11 11 10 9 9 9 9 9 9 9 9 9 9 8 8 8 9 10 10 9 8 8 9 10 10 10 10 10 9 8 8 8 9 11 11 9 10 10 10 11 11 11 12 10 9 8 9 10 10 9 9 9 10 8 7 9 10 10 9 8 9 10 9 nan
nan 10 9 8 8 9 10 10 10 11 10 10 10 10 10 9 9 9 9 9 9 9 10 12 13 11 10 10 9 9 8 7 8 9 8 7 7 9 10 11 11 10 9 9 10 11 11 12 11 9 8 8 9 10 10 11 10 10 10 9 9 9 9 10 10 10 11 12 nan
nan 10 11 10 10 10 10 9 10 11 11 11 12 13 13 11 11 11 11 10 9 9 9 10 12 12 11 10 10 9 8 7 7 8 9 8 8 8 9 10 11 12 11 9 10 11 12 12 11 9 9 9 9 9 11 11 11 10 11 11 10 9 10 11 10 10 11 13 nan
nan 10 11 12 12 12 11 11 9 10 10 10 10 12 13 13 12 12 12 10 8 7 7 7 8 10 10 9 10 10 10 10 9 9 10 10 9 9 9 9 10 11 11 10 10 11 12 12 11 9 9 9 8 8 11 13 12 11 11 11 11 10 9 9 10 9 8 10 nan
nan 9 11 12 12 13 13 13 12 11 11 10 9 10 11 12 11 11 10 10 9 8 8 6 7 9 9 9 9 8 8 9 9 9 10 9 8 9 9 9 9 9 9 10 10 11 13 12 11 10 10 10 9 8 10 13 14 12 11 11 11 11 11 10 10 9 7 7 nan
nan 9 10 11 12 12 13 13 13 13 12 12 10 9 9 11 11 10 10 9 10 10 10 9 8 8 8 9 8 8 8 7 7 8 8 8 9 10 10 10 9 10 9 9 9 10 13 13 12 12 12 12 12 11 10 12 13 12 11 8 10 11 13 12 11 10 8 6 nan
nan 9 9 9 10 11 11 12 12 11 11 10 9 8 8 9 10 10 10 9 9 10 11 10 9 8 8 9 9 9 9 8 7 6 7 8 9 10 11 11 10 11 10 10 9 9 11 12 11 12 13 12 11 11 11 11 12 12 12 9 9 10 11 12 10 9 8 7 nan
nan 9 10 9 8 9 9 10 9 9 9 8 7 7 6 6 9 10 11 10 9 9 10 9 10 10 10 8 9 10 10 10 9 8 7 8 8 9 10 10 10 10 11 11 11 10 10 10 10 11 12 12 9 8 9 10 11 11 12 12 9 9 8 10 10 9 7 8 nan
nan 9 9 9 8 9 9 9 8 8 8 8 8 7 7 6 8 9 9 11 10 9 8 8 9 10 10 9 9 9 10 10 10 9 8 8 8 9 9 9 9 9 10 11 12 12 11 11 10 10 10 11 10 8 8 9 9 9 10 11 10 9 8 9 11 11 10 9 nan
nan 9 9 9 9 8 8 8 8 7 7 8 9 8 8 7 7 7 7 8 8 8 8 8 8 9 9 10 10 10 9 9 9 10 9 9 9 9 9 9 9 9 9 10 12 13 12 10 10 10 9 11 12 11 9 8 8 8 8 8 9 9 9 9 10 11 11 10 nan
nan 8 8 8 8 8 8 8 9 8 8 8 9 9 9 7 7 7 7 6 7 8 8 8 7 8 9 10 10 11 10 10 9 10 10 10 9 9 9 9 9 9 9 9 10 11 12 11 9 9 9 10 11 11 10 9 9 8 8 8 8 8 8 8 9 9 9 9 nan
nan 8 8 8 8 8 9 10 10 9 9 8 9 9 9 9 8 8 8 7 6 7 8 8 7 7 7 9 10 10 10 10 10 10 10 10 10 10 10 9 9 10 10 10 10 10 10 10 9 9 9 9 9 9 10 10 9 9 9 8 8 8 8 9 9 9 8 8 nan
nan 9 9 8 9 10 10 11 11 9 9 10 10 11 11 11 10 10 10 9 7 8 9 9 8 7 6 7 7 8 8 8 8 9 9 9 10 10 9 9 9 10 10 11 10 10 9 9 9 9 9 9 8 8 9 9 9 9 9 9 8 8 9 9 9 9 8 8 nan
nan 10 10 10 10 10 11 11 11 10 9 10 11 12 11 11 11 11 11 12 11 11 10 9 9 9 8 7 7 7 7 7 8 8 8 8 8 8 8 9 9 9 10 10 10 10 10 10 10 9 9 8 8 8 8 9 9 8 9 9 9 9 9 9 8 8 7 8 nan
nan 11 11 11 10 9 10 10 10 9 8 9 10 10 10 10 11 11 11 12 13 13 11 9 9 9 9 9 9 9 8 8 9 9 9 8 7 7 7 8 8 8 9 9 9 9 9 9 10 9 9 8 8 8 8 8 8 8 8 8 9 9 9 8 8 8 7 6 nan
nan 9 10 10 9 9 9 9 9 8 8 8 9 9 9 9 11 11 11 12 13 12 10 9 8 9 9 9 10 10 10 9 9 10 9 9 8 8 8 8 9 9 9 9 9 9 8 8 9 9 9 8 8 8 8 8 8 8 7 7 8 9 9 8 8 8 8 7 nan
nan 8 8 9 9 9 8 8 8 8 8 8 9 9 9 8 9 10 10 11 11 11 11 10 9 9 8 7 8 9 9 8 8 8 9 9 8 8 8 9 9 9 9 9 9 9 9 9 9 8 8 8 8 8 7 8 8 8 7 7 7 8 8 8 8 8 8 7 nan
nan 8 8 8 9 8 9 9 9 9 9 9 9 9 8 8 9 9 9 9 9 10 11 12 11 10 8 7 6 7 8 8 7 7 8 8 8 8 8 8 8 9 9 9 9 9 10 10 9 9 8 8 7 7 7 7 7 7 8 9 9 8 7 7 7 7 7 7 nan
nan 8 8 9 9 9 10 9 9 9 9 9 8 8 9 9 9 9 10 10 9 9 10 11 11 11 11 10 9 8 7 7 7 7 8 8 8 8 8 7 7 7 7 7 7 8 8 9 9 9 8 7 7 7 7 7 7 7 7 9 9 7 6 5 6 6 6 6 nan
nan 8 8 9 9 9 9 9 9 9 9 8 8 9 9 9 9 10 10 11 10 9 9 9 10 10 11 12 13 12 11 9 8 9 9 10 10 10 9 8 8 8 7 6 7 7 7 7 7 7 7 7 7 7 7 7 6 6 7 7 7 6 6 6 6 5 5 6 nan
nan 8 9 9 9 9 9 9 9 9 9 9 9 9 9 9 9 9 9 9 9 9 9 9 8 8 9 11 13 14 15 13 11 10 10 10 11 10 10 10 10 10 11 12 15 14 11 9 8 8 8 9 9 9 9 8 7 7 7 6 6 7 7 8 7 6 6 6 nan
nan 9 9 9 10 10 10 10 10 10 9 9 9 9 9 9 9 9 8 8 8 9 9 10 9 8 7 8 9 11 13 13 12 11 9 9 8 9 9 9 10 11 14 20 22 18 15 14 13 12 11 10 10 10 10 10 10 10 9 8 7 7 7 7 7 7 6 5 nan
nan 9 9 10 10 10 10 10 9 9 9 9 10 10 10 9 9 9 9 8 8 9 9 10 9 9 8 7 8 9 10 11 11 10 10 8 7 8 9 9 10 11 14 19 18 16 15 14 14 13 12 10 10 9 10 10 10 11 11 10 10 9 8 7 7 7 7 6 nan
nan 9 9 10 10 10 9 9 9 9 9 9 9 9 9 10 10 9 9 8 8 8 8 7 7 7 7 8 8 9 10 10 10 11 10 8 8 9 9 9 10 12 14 16 15 14 13 12 10 10 11 11 10 9 8 8 8 9 10 11 12 12 11 10 9 9 9 8 nan
nan 9 10 10 10 9 9 9 9 9 9 9 9 9 9 10 10 9 9 8 8 8 7 7 7 7 7 8 9 9 9 9 10 10 10 10 9 8 8 9 10 12 14 15 13 13 13 12 9 9 9 11 10 9 8 8 7 8 8 9 10 11 12 11 11 10 10 10 nan
nan 10 10 10 9 9 9 9 9 9 9 8 9 9 10 10 10 9 9 8 8 8 8 9 9 9 10 10 9 8 7 8 9 10 11 10 9 9 9 10 10 11 12 13 12 13 13 12 10 9 8 9 9 10 10 10 9 8 8 8 9 9 10 10 11 11 11 11 nan
nan 10 10 10 9 8 8 9 9 9 8 9 9 9 10 10 9 9 9 9 9 9 9 10 10 11 12 11 9 8 7 8 9 10 11 10 10 9 9 9 10 10 11 11 12 12 13 12 11 10 8 7 8 11 11 11 10 10 9 9 9 9 9 9 10 11 11 11 nan
nan 10 11 10 9 9 9 9 9 9 9 9 10 10 9 9 9 8 8 9 9 9 9 10 11 11 11 11 11 10 9 9 9 10 10 10 8 7 7 8 10 11 11 11 12 12 12 12 12 11 9 6 6 9 11 11 11 11 10 10 10 10 9 8 8 9 10 11 nan
nan 11 11 10 10 9 8 8 8 9 9 10 9 9 9 9 8 9 9 9 9 9 10 10 10 10 10 11 11 11 10 9 10 11 11 10 7 7 7 8 9 11 12 11 11 11 11 11 11 10 9 6 5 8 9 9 9 9 10 10 9 9 10 10 9 8 9 10 nan
nan 10 11 10 9 9 8 8 8 9 9 9 9 9 9 9 9 9 10 10 10 10 10 10 10 10 10 10 10 10 10 10 11 11 11 9 8 8 7 8 9 11 12 10 10 10 10 10 10 9 8 5 3 6 8 9 8 8 9 8 8 8 9 9 9 9 9 10 nan
nan 10 10 10 9 8 8 8 9 9 10 10 9 9 9 9 9 9 10 10 10 10 10 10 10 10 10 10 10 9 9 9 10 10 10 9 9 8 8 7 9 11 11 10 10 9 9 8 9 9 7 2 1 5 8 9 9 10 9 9 8 8 8 8 9 9 9 9 nan
nan 10 10 10 9 8 8 8 9 9 10 10 9 9 9 9 9 9 9 9 9 9 9 9 10 10 10 11 11 10 9 9 10 11 11 9 9 9 9 9 11 12 10 9 10 10 9 9 8 7 5 -0 1 6 9 9 9 10 10 9 8 8 8 8 8 8 8 8 nan
nan 10 10 9 9 8 8 8 9 9 10 9 8 8 8 8 9 9 9 9 9 9 9 9 9 9 10 10 11 10 9 9 10 12 12 10 9 9 9 9 10 10 8 8 9 10 11 10 9 7 2 -1 3 7 9 9 9 10 9 8 8 8 8 8 8 8 8 8 nan
nan 10 10 10 9 9 8 9 9 9 9 8 8 8 8 8 8 9 9 9 9 9 9 9 9 9 9 10 10 9 9 9 10 11 13 11 9 9 9 8 9 10 8 7 8 10 11 12 12 8 3 2 6 9 9 9 9 10 9 9 9 8 8 7 8 7 8 8 nan
nan 10 10 10 9 9 9 9 9 9 9 8 8 8 9 9 9 9 10 9 9 10 9 9 10 9 9 9 9 9 9 10 11 11 13 12 11 10 9 8 9 10 10 7 6 8 10 13 13 11 6 6 9 9 9 9 10 10 10 9 9 9 8 8 8 8 8 9 nan
nan 10 11 11 10 9 9 9 9 9 9 8 8 9 9 9 9 10 10 10 10 11 10 10 10 10 9 9 9 9 9 10 11 12 12 14 15 14 10 8 10 11 11 8 5 6 8 11 13 11 9 8 10 9 9 9 10 10 10 10 10 9 9 9 9 9 9 9 nan
nan 9 10 11 10 10 9 8 8 9 9 10 9 9 8 9 9 9 9 9 11 11 11 11 10 10 10 9 8 8 8 9 10 11 12 14 18 17 9 6 9 11 12 8 5 5 6 8 9 9 8 9 11 10 10 10 10 10 10 10 10 10 9 10 10 10 10 9 nan
nan nan nan nan nan nan nan nan nan nan nan nan nan nan nan nan nan nan nan nan nan nan nan nan nan nan nan nan nan nan nan nan nan nan nan nan nan nan nan nan nan nan nan nan nan nan nan nan nan nan nan nan nan nan nan nan nan nan nan nan nan nan nan nan nan nan nan nan nan
CAPE
1 5 5 6 5 5 3 4 8 8 6 4 5 2 2 2 3 3 3 3 4 5 5 4 2 1 1 nan 0 0 0 0 0 0 0 0 0 0 0 nan nan nan nan nan nan nan nan nan nan nan 0 0 0 nan nan nan nan nan nan nan nan nan nan nan nan nan nan nan nan
2 4 4 7 6 6 3 4 4 4 5 5 5 2 2 2 4 4 4 4 4 3 3 3 1 nan nan nan nan nan nan nan nan nan nan nan nan nan nan nan nan nan nan nan nan nan nan nan nan nan 0 0 0 0 0 nan nan nan nan nan nan nan nan 0 nan nan nan nan nan
2 1 1 1 1 1 3 3 2 2 1 3 5 3 3 3 5 4 4 3 3 2 2 4 3 0 0 0 nan nan nan nan nan nan nan nan nan nan nan nan nan nan nan nan nan nan nan nan nan nan 0 0 0 0 0 nan nan nan nan nan nan 0 0 1 0 0 nan nan nan
2 1 1 1 1 1 1 2 1 1 0 2 3 3 3 3 3 4 4 2 3 5 5 5 8 6 6 1 nan nan nan 0 nan nan nan nan nan nan nan nan nan nan nan nan nan nan nan nan nan nan nan nan nan 0 0 0 nan 0 0 0 0 0 0 1 0 0 nan nan nan
3 2 2 1 0 0 0 0 0 0 0 1 2 2 2 1 2 2 2 2 3 5 5 6 6 5 5 1 nan nan nan 0 1 nan nan nan nan nan nan nan 0 0 0 nan nan nan nan nan nan nan nan nan 0 0 0 0 nan nan nan 0 1 1 1 1 0 0 0 nan nan
3 3 3 1 nan nan nan nan 1 1 0 0 0 2 2 2 2 1 1 2 2 1 1 2 0 1 1 nan nan nan nan nan nan nan nan nan nan nan nan nan nan nan nan nan nan nan nan nan nan nan 0 0 0 nan nan nan nan 0 0 0 2 1 1 1 1 1 nan nan nan
1 2 2 1 1 1 nan 0 1 1 0 0 nan 0 0 0 0 0 0 0 0 nan nan nan nan nan nan nan nan nan nan nan nan nan nan nan nan nan nan nan nan nan nan nan nan nan nan nan nan nan 0 1 0 nan nan nan nan 0 0 1 1 2 2 1 0 0 nan nan nan
nan 0 0 1 1 1 0 1 1 1 0 1 1 1 1 0 0 0 0 0 nan nan nan nan nan nan nan nan 0 0 nan nan nan nan nan nan nan nan nan nan nan nan nan nan nan nan nan nan nan nan nan 0 0 nan nan nan nan 0 0 0 0 0 0 0 nan nan nan nan nan
nan nan nan nan nan nan 0 1 1 1 1 3 3 2 2 1 0 0 0 1 3 2 2 1 nan nan nan nan nan nan 0 nan 0 nan nan nan nan nan nan nan nan nan nan nan nan nan nan nan nan nan 0 1 1 nan nan nan nan nan nan 0 0 nan nan nan nan nan nan nan nan
nan nan nan nan nan nan 0 0 0 0 1 2 4 3 3 6 1 1 1 4 7 4 4 6 0 nan nan nan nan nan nan nan nan nan nan nan nan nan nan nan nan nan nan nan nan nan nan nan 0 0 0 0 0 nan nan nan nan 0 0 0 nan nan nan nan nan nan nan nan nan
nan nan nan nan nan nan nan nan 0 0 1 3 3 3 3 5 2 2 2 2 1 5 5 5 2 nan nan 3 1 1 0 1 nan nan nan nan nan nan nan nan nan nan nan nan nan nan nan nan nan nan nan nan nan nan nan nan nan 0 0 nan nan nan nan nan nan nan nan nan nan
0 nan nan 0 nan nan nan nan 0 0 1 3 3 2 2 1 1 2 2 nan 1 2 2 2 4 1 1 0 1 1 4 2 nan nan nan nan nan nan nan nan nan nan nan nan nan nan nan nan nan nan nan nan nan nan nan nan nan 0 0 nan nan nan nan nan nan nan nan nan nan
nan nan nan 0 nan nan nan nan nan nan nan 2 4 4 4 3 2 nan nan 1 3 2 2 1 7 2 2 3 0 0 3 3 0 nan nan nan nan nan nan nan nan nan nan nan nan nan nan nan nan nan nan nan nan 0 0 0 0 1 1 0 nan nan nan 0 nan nan nan nan nan
nan nan nan nan nan nan nan nan nan nan nan nan 1 2 2 1 1 nan nan nan nan 0 0 4 5 nan nan nan 1 1 1 nan nan nan nan nan nan nan nan nan nan nan nan nan nan nan nan nan nan nan nan nan 0 0 0 0 1 0 0 0 0 2 2 1 0 0 0 nan nan
nan nan nan nan nan nan nan nan nan nan nan nan nan nan nan 0 0 nan nan nan nan 0 0 0 1 nan nan nan nan nan 1 nan nan nan nan nan nan nan nan nan nan nan nan nan nan nan nan nan 0 0 nan nan 0 1 1 1 1 0 0 1 2 2 2 1 1 1 0 nan nan
nan nan nan nan nan nan nan nan nan nan nan nan nan nan nan nan 2 0 0 nan 0 0 0 nan nan nan nan nan nan nan 0 nan nan nan nan nan nan nan nan nan nan nan nan nan nan nan nan nan nan nan 0 0 1 1 1 1 1 1 1 2 2 1 1 1 1 1 0 0 0
nan nan nan nan nan nan nan nan nan nan nan nan nan nan nan nan nan nan nan nan nan 0 0 0 nan nan nan nan nan nan nan nan nan nan nan 0 1 nan nan nan nan nan nan nan nan nan nan nan 0 0 0 1 1 1 1 1 1 1 1 2 2 1 1 2 0 0 1 1 1
nan nan nan nan nan nan nan nan nan nan nan nan nan nan nan nan nan nan nan nan nan nan nan nan nan nan nan nan nan nan nan nan nan nan nan nan nan nan nan nan nan nan nan nan nan nan nan nan nan nan 2 1 1 1 1 1 2 2 2 2 2 1 1 0 0 0 1 1 3
nan nan nan nan nan nan nan nan nan nan nan nan nan nan nan nan nan nan nan nan nan nan nan nan nan nan nan nan nan nan nan nan nan nan nan nan nan nan nan nan nan nan nan nan nan nan nan nan nan nan nan nan 0 2 2 2 2 1 1 3 3 3 3 1 0 0 0 nan 1
nan nan nan nan nan nan nan nan nan nan nan nan nan nan nan nan nan nan nan nan nan nan nan nan nan nan nan nan nan nan nan nan nan nan nan nan nan nan nan nan nan nan nan nan nan nan nan nan nan nan nan nan nan nan nan 0 2 2 2 3 3 4 4 2 0 0 nan 0 0
nan nan nan nan nan nan nan nan nan nan nan nan nan nan nan nan nan nan nan nan nan nan nan nan nan nan nan nan nan nan nan nan nan nan nan nan nan nan nan nan nan nan nan nan nan nan nan nan nan nan nan nan nan nan nan nan nan 1 1 2 3 3 3 3 0 0 nan nan nan
nan nan nan nan nan nan nan nan nan nan nan nan nan nan nan nan nan nan nan nan nan nan nan nan nan nan nan 0 0 0 nan nan nan nan nan nan nan nan nan nan nan nan nan nan nan nan nan nan nan nan nan nan nan nan nan nan nan nan nan nan 2 2 2 0 2 2 nan nan nan
nan nan nan nan nan nan nan nan nan nan nan nan nan nan nan nan nan nan nan nan nan nan nan nan nan nan nan nan 1 1 1 2 0 nan nan nan nan nan nan nan nan nan nan nan nan nan nan nan nan nan nan nan nan nan nan nan nan nan nan nan nan nan nan nan 1 1 nan nan nan
nan nan nan nan nan nan nan nan nan nan nan nan nan nan nan nan nan nan nan nan nan nan nan nan nan nan nan nan nan nan nan 1 2 1 1 0 nan nan nan nan nan nan nan nan nan nan nan nan nan nan nan nan nan nan nan nan nan nan nan nan nan nan nan nan nan nan nan nan nan
nan nan nan nan nan nan nan nan nan nan nan nan nan nan nan nan nan nan nan nan nan nan nan nan nan nan nan nan nan nan nan nan 0 0 0 nan nan nan nan nan nan nan nan nan 0 0 nan nan nan nan nan nan nan nan nan nan nan nan nan nan nan nan nan nan nan nan nan nan nan
nan nan nan nan nan nan nan nan nan nan nan nan nan nan nan nan nan nan nan nan nan nan nan nan nan nan nan nan nan nan nan nan nan nan nan 0 nan nan nan nan nan nan nan 0 1 1 0 nan nan nan nan nan nan nan nan nan nan nan nan nan nan nan nan nan nan nan nan nan nan
nan nan nan nan nan nan nan nan nan nan nan nan nan nan nan nan nan nan nan nan nan nan nan nan nan nan nan nan nan nan nan nan nan nan nan nan nan nan nan nan nan nan nan 2 2 2 1 0 nan nan nan nan nan nan nan nan nan nan nan nan nan nan nan nan nan nan nan nan nan
nan nan nan nan nan nan nan nan nan nan nan nan nan nan nan nan nan nan nan nan nan nan nan nan nan nan nan nan nan nan nan nan nan nan nan nan nan nan nan nan nan nan nan 4 2 2 1 1 0 0 nan nan nan nan nan nan nan nan nan nan nan nan nan nan nan nan nan nan nan
nan nan nan nan nan nan nan nan nan nan nan nan nan nan nan nan nan nan nan nan nan nan nan nan nan nan nan nan nan nan nan nan nan nan nan nan nan nan nan nan nan 1 1 4 2 2 1 1 0 0 nan nan nan nan nan nan nan nan nan nan nan nan nan nan nan nan nan nan nan
nan nan nan nan nan nan nan nan nan nan nan nan nan nan nan nan nan nan nan nan nan nan nan nan nan nan nan nan nan nan nan nan nan 0 0 nan nan nan nan nan nan nan nan 4 3 3 1 1 0 0 nan nan nan nan nan nan nan nan nan nan nan nan nan nan nan nan nan nan nan
nan nan nan nan nan nan nan nan nan nan nan nan nan nan nan nan nan nan nan nan nan nan nan nan nan nan nan nan nan nan nan nan nan 1 1 0 1 nan nan nan nan 2 2 4 3 3 2 1 0 0 nan nan nan nan nan nan nan nan nan nan nan nan nan nan nan nan nan nan nan
nan nan nan nan nan nan nan nan nan nan nan nan nan nan nan nan nan nan nan nan nan nan nan nan nan nan nan nan nan nan nan nan 0 0 0 1 0 nan nan nan nan 2 2 5 4 4 2 1 1 1 nan nan nan nan nan nan nan nan nan nan nan nan nan nan nan nan nan nan nan
nan nan nan nan nan nan nan nan nan nan nan nan nan nan nan nan nan nan nan nan nan nan nan nan nan nan nan nan nan nan nan nan 0 3 3 1 0 nan nan nan nan 3 3 5 4 4 2 1 0 0 0 nan nan nan nan nan nan nan nan nan nan nan nan nan nan nan nan nan nan
nan nan nan nan nan nan nan nan nan nan nan nan nan nan nan nan nan nan nan nan nan nan nan nan nan nan nan nan nan nan nan nan nan nan nan nan 1 2 2 nan nan 6 6 6 4 4 2 1 0 0 nan nan nan nan nan nan nan nan nan nan nan nan nan nan nan nan nan nan nan
nan nan nan nan nan nan nan nan nan nan nan nan nan nan nan nan nan nan nan nan nan nan nan nan nan nan nan nan nan nan nan nan nan nan nan nan nan 4 4 nan nan 6 6 6 4 4 2 1 0 0 nan nan nan nan nan nan nan nan nan nan nan nan nan nan nan nan nan nan nan
nan nan nan nan nan nan nan nan nan nan nan nan nan nan nan nan nan nan nan nan nan nan nan nan nan nan nan nan nan nan nan nan nan nan nan nan nan 3 3 0 0 6 6 6 4 4 3 2 1 1 nan nan nan nan nan nan nan nan nan nan nan nan nan nan nan nan nan nan nan
nan nan nan nan nan nan nan nan nan nan nan nan nan nan nan nan nan nan nan nan nan nan nan nan nan nan nan nan nan nan nan nan nan nan nan 0 0 3 3 2 nan 2 2 5 5 5 3 1 1 1 1 nan nan nan nan nan nan nan nan nan nan nan nan nan nan nan nan nan nan
nan nan nan nan nan nan nan nan nan nan nan nan nan nan nan nan nan nan nan nan nan nan nan nan nan nan nan nan nan nan nan nan nan nan nan 3 3 2 2 2 nan 0 0 6 6 6 4 1 0 0 nan nan nan nan nan nan nan nan nan nan nan nan nan nan nan nan nan nan nan
nan nan nan nan nan nan nan nan nan nan nan nan nan nan nan nan nan nan nan nan nan nan nan nan nan nan nan nan nan nan nan nan nan nan nan nan 2 5 5 2 1 0 0 5 6 6 5 3 1 1 0 nan nan nan nan nan nan nan nan nan nan nan nan nan nan nan nan nan nan
nan nan nan nan nan nan nan nan nan nan nan nan nan nan nan nan nan nan nan nan nan nan nan nan nan nan nan nan nan nan nan nan nan nan nan nan nan 17 17 3 2 3 3 7 7 7 6 5 3 3 2 nan nan nan nan nan nan nan nan nan nan nan nan nan nan nan nan nan nan
nan nan nan nan nan nan nan nan nan nan nan nan nan nan nan nan nan nan nan nan nan nan nan nan nan nan nan nan nan nan nan nan nan nan nan nan nan 24 24 3 nan 0 0 15 12 12 10 7 4 4 1 nan nan nan nan nan nan nan nan nan nan nan nan nan nan nan nan nan nan